Regional Weather Roundup
Issued by NWS

Home | Current Version | Previous Version | Graphics & Text | Print | Product List | Glossary On
Versions: 1 2 3 4 5 6 7 8 9 10 11 12 13 14 15 16 17 18 19 20 21 22 23 24 25 26 27 28 29 30 31 32 33 34 35 36 37 38 39 40 41 42 43 44 45 46 47 48 49 50
000
ASUS43 KLOT 282021
RWRIL

ILLINOIS REGIONAL WEATHER ROUNDUP
NATIONAL WEATHER SERVICE CHICAGO/ROMEOVILLE IL
300 PM CDT TUE JUL 28 2015

NOTE: "FAIR" INDICATES FEW OR NO CLOUDS BELOW 12,000 FEET WITH NO
SIGNIFICANT WEATHER AND/OR OBSTRUCTIONS TO VISIBILITY.

* THESE STATIONS ARE NOT UNDER NWS QUALITY CONTROL. THEY ALSO MAY NOT
  REPORT WEATHER SUCH AS PRECIPITATION OR FOG.

ILZ001-002-007-009-015-016-024-282100-
NORTHWEST ILLINOIS

CITY           SKY/WX    TMP DP  RH WIND       PRES   REMARKS
MOLINE         CLOUDY    79  73  82 SE8       29.89F HX  82
STERLING*      CLOUDY    82  75  78 S10G16    29.87F HX  89
SAVANNA*       CLOUDY    79  73  80 SE16G23   29.84F HX  82
$$

ILZ003-004-008-010-011-017-018-282100-
NORTH CENTRAL ILLINOIS

CITY           SKY/WX    TMP DP  RH WIND       PRES   REMARKS
ROCKFORD       PTSUNNY   86  73  65 S15       29.87F HX  93
FREEPORT*      CLOUDY    78  73  84 S10G16    29.89F HX  81
ROCHELLE*      CLOUDY    83  74  74 S8        29.90F HX  90
DE KALB*       PTSUNNY   86  74  67 S12       29.93  HX  94
PERU*          LGT RAIN  80  76  87 SE10      29.93F HX  86
$$

ILZ005-006-012>014-019>023-282100-
NORTHEAST ILLINOIS

CITY           SKY/WX    TMP DP  RH WIND       PRES   REMARKS
CHICAGO-OHARE  PTSUNNY   90  69  50 VRB6      29.94F HX  94
CHICAGO-MIDWAY PTSUNNY   92  69  47 SW8       29.94F HX  97
AURORA         MOSUNNY   88  71  57 VRB5      29.96F HX  94
LANSING*       MOSUNNY   90  65  43 S6        29.96S HX  91
JOLIET*        MOSUNNY   90  72  54 W6        29.95F HX  97
WAUKEGAN       SUNNY     81  68  64 SE12      29.95F HX  84
DUPAGE AIRPORT MOSUNNY   88  67  49 SE7       29.94F HX  91
KANKAKEE*      PTSUNNY   89  74  61 CALM      29.97S HX  97
WHEELING       PTSUNNY   88  69  53 E6        29.95F HX  92
MORRIS*        MOSUNNY   86  73  66 CALM      29.95S HX  93
ROMEOVILLE*    MOSUNNY   89  66  47 SW3       29.96S HX  91
NORTHERLY ISL    N/A     80  70  71 NE7         N/A  HX  83
$$

LMZ740>746-282100-
SOUTHERN LAKE MICHIGAN

STATION/POSITION SKY/WX   TEMP    WIND        PRES    VSBY  WAVE
                          AIR SEA DIR/SP/G                  HT/PER
                          (F)     (DEG/KT/KT) (MB)    (MI)  (FT/S)
HARRISON CRIB              78      90/ 14/ 15   N/A
BURNHAM HARBOR             80      70/  7       N/A
CALUMET HARBOR             79      50/  8/ 10   N/A
BURNS HARBOR               88     170/  7/ 12 1015.2F
MICHIGAN CITY              83     330/  4/  6   N/A
MICHIGAN CITY 6N           80 80   50/  6/  8   N/A           0
ST. JOSEPH                 81 78   10/  4/  6   N/A           0
$$

ILZ025>027-034>036-040-047-049-050-058-095>099-282100-
WEST-CENTRAL ILLINOIS

CITY           SKY/WX    TMP DP  RH WIND       PRES   REMARKS
QUINCY         MOSUNNY   92  78  63 S5        29.92F HX 107
GALESBURG*     HVY RAIN  80  76  90 E12G17    29.93F HX  84
MACOMB*        MOSUNNY   90  78  69 SE6       29.94F HX 104
JACKSONVILLE*  SUNNY     94  80  65 W3        29.93F HX 113
PITTSFIELD*    MOSUNNY   93  75  55 SW3       29.94F HX 104
$$

ILZ028>032-037-038-041>044-048-051>054-059>061-282100-
CENTRAL ILLINOIS

CITY           SKY/WX    TMP DP  RH WIND       PRES   REMARKS
PONTIAC        RAIN      82  78  88 CALM      29.98S HX  90
BLOOMINGTON    CLOUDY    73  72  94 E6        29.99F
DECATUR        PTSUNNY   92  76  59 VRB5      29.96S HX 104
PEORIA         PTSUNNY   80  72  76 E8        29.95F HX  84
LACON*         CLOUDY    74  70  86 E3        29.93F
LINCOLN*       PTSUNNY   80  71  72 NE14G23   29.96R HX  83
SPRINGFIELD    MOSUNNY   95  79  59 CALM      29.95F HX 112
TAYLORVILLE    MOSUNNY   90  79  70 CALM      29.95F HX 105
$$

ILZ033-039-045-046-055>057-062-063-282100-
EAST-CENTRAL ILLINOIS

CITY           SKY/WX    TMP DP  RH WIND       PRES   REMARKS
CHAMPAIGN      PTSUNNY   91  75  59 CALM      29.97F HX 101
DANVILLE*      MOSUNNY   88  76  66 W3        29.95S HX  99
MATTOON        MOSUNNY   90  73  57 W3        29.96F HX  98
PARIS*         MOSUNNY   90  75  62 CALM      29.97F HX 100
$$

ILZ079-100>102-282100-
SOUTHWEST ILLINOIS

CITY           SKY/WX    TMP DP  RH WIND       PRES   REMARKS
ALTON          MOSUNNY   91  77  62 CALM      29.94F HX 105
BELLEVILLE     MOSUNNY   94  82  66 SW8       29.93F HX 116
CAHOKIA*       SUNNY     95  77  55 S6        29.93F HX 109
SPARTA*        MOSUNNY   93  79  62 W6        29.95F HX 109
$$

ILZ064>066-069>071-074>076-080>082-084>086-088>090-092>094-282100-
SOUTH-CENTRAL ILLINOIS

CITY           SKY/WX    TMP DP  RH WIND       PRES   REMARKS
CARBONDALE     SUNNY     93  78  61 W7        29.94F HX 108
CAIRO*         MOSUNNY   92  80  66 SW7       29.95F HX 111
EFFINGHAM*     SUNNY     92  71  50 CALM      29.97F HX  98
MARION         PTSUNNY   93  79  62 SW8       29.95F HX 110
MT. VERNON     MOSUNNY   93  75  55 W3        29.94F HX 104
CENTRALIA*     MOSUNNY   92  75  57 CALM      29.95F HX 104
SALEM*         MOSUNNY   94  77  57 W3        29.95S HX 108
METROPOLIS*    SUNNY     94  80  63 W5        29.96S HX 113
$$

ILZ067-068-072-073-078-083-087-091-282100-
SOUTHEAST ILLINOIS

CITY           SKY/WX    TMP DP  RH WIND       PRES   REMARKS
LAWRENCEVILLE  PTSUNNY   91  77  63 S6        29.95F HX 104
FLORA*         PTSUNNY   91  75  60 N3        29.95F HX 101
FAIRFIELD*     MOSUNNY   91  79  67 SW3       29.93F HX 108
HARRISBURG*    MOSUNNY   92  78  62 W5        29.95F HX 108
ROBINSON*      MOSUNNY   90  77  67 W3        29.96S HX 103
CARMI*         MOSUNNY   91  75  58 NW3       29.94F HX 101
$$

ABBREVIATIONS USED IN REMARKS
   TC - TEMPERATURE IN CELSIUS
  WCI - WIND CHILL INDEX
   HX - HEAT INDEX
  VSB - VISIBILITY
$$




USA.gov is the U.S. government's official web portal to all federal, state and local government web resources and services.